Meteo Giornale » Osservazioni meteo Francia » Le Luc

ore: 04:30 - Osservazioni Meteo Le Luc
Lat. 43° 23' N Lon. 6° 23' E Alt. 80 metri s.l.m.

sereno Europe/Paris

18 °C

Sereno

Temp. 24 Ore

18 °C

30 °C

Sud-Ovest

7.4 Km/h

Dew point 12 °C

Umidità 67 %

Visibilità  10 Km

Il sole sorge alle ore 05:51

Il sole tramonta alle ore 21:18

Data e Ora Cielo e Fenomeni T °C DP °C Um. % Pres. hPa Vis. km Vento km/h
Oggi h: 04:30 sereno Sereno 18 12 67 1015 10 SO 7.4
Oggi h: 04:00 sereno Sereno 19 12 63 1015 10 SO 11.1
Oggi h: 03:30 sereno Sereno 19 13 68 1015 10 N 5.5
Oggi h: 03:00 sereno Sereno 19 14 72 1015 10 N 5.5
Oggi h: 02:30 sereno Sereno 20 14 68 1015 10 SO 9.3
Oggi h: 02:00 sereno Sereno 20 14 68 1015 10 SO 7.4
Oggi h: 01:30 sereno Sereno 20 14 68 1015 10 SO 7.4
Oggi h: 01:00 sereno Sereno 21 14 64 1015 10 N 5.5
Oggi h: 00:30 sereno Sereno 21 15 68 1015 10 S/SO 7.4
Oggi h: 00:00 sereno Sereno 21 15 68 1015 10 N 5.5
Ieri h: 23:30 sereno Sereno 21 15 68 1015 10 N 5.5
Ieri h: 23:00 sereno Sereno 22 15 64 1015 10 N 5.5
Ieri h: 22:30 sereno Sereno 23 15 60 1015 10 SO 11.1
Ieri h: 22:00 sereno Sereno 24 14 53 1014 10 SO 13
Ieri h: 21:30 sereno Sereno 25 13 47 1014 10 O/SO 9.3
Ieri h: 21:00 sereno Sereno 27 14 44 1014 10 O 14.8
Ieri h: 20:30 sereno Sereno 27 15 47 1014 10 O/SO 11.1
Ieri h: 20:00 sereno Sereno 28 14 42 1014 10 O/SO 11.1
Ieri h: 19:30 sereno Sereno 28 14 42 1014 10 SO 11.1
Ieri h: 19:00 sereno Sereno 28 14 42 1014 10 S/SO 11.1
Ieri h: 18:30 sereno Sereno 28 13 39 1014 10 O/SO 14.8
Ieri h: 18:00 sereno Sereno 29 14 39 1014 10 SO 14.8
Ieri h: 17:30 sereno Sereno 29 14 39 1014 10 O/SO 16.7
Ieri h: 17:00 sereno Sereno 29 13 37 1014 10 O/SO 14.8
Ieri h: 16:30 sereno Sereno 29 13 37 1014 10 S/SO 13
Ieri h: 16:00 sereno Sereno 30 14 37 1015 10 S 11.1
Ieri h: 15:30 sereno Sereno 30 15 40 1015 10 SO 13
Ieri h: 15:00 sereno Sereno 29 15 42 1015 10 S/SO 9.3
Ieri h: 14:30 sereno Sereno 29 15 42 1015 10 O/SO 14.8
Ieri h: 14:00 sereno Sereno 28 15 45 1015 10 S/SO 11.1
Ieri h: 13:30 sereno Sereno 28 15 45 1015 10 O/SO 9.3
Ieri h: 13:00 sereno Sereno 28 15 45 1015 10 N 7.4
Ieri h: 12:30 sereno Sereno 27 16 50 1016 10 N 7.4
Ieri h: 12:00 sereno Sereno 27 16 50 1016 10 O/SO 13
Ieri h: 11:30 sereno Sereno 26 17 57 1016 10 N 5.5
Ieri h: 11:00 sereno Sereno 26 17 57 1015 10 N 7.4
Ieri h: 10:30 sereno Sereno 26 17 57 1015 10 N 5.5
Ieri h: 10:00 sereno Sereno 25 17 61 1015 10 N 5.5
Ieri h: 09:30 sereno Sereno 24 18 69 1015 10 N 5.5
Ieri h: 09:00 sereno Sereno 23 18 73 1016 10 N 0
Ieri h: 08:30 sereno Sereno 22 18 78 1016 10 N 1.8
Ieri h: 08:00 sereno Sereno 21 18 82 1015 10 N 3.7
Ieri h: 07:30 sereno Sereno 20 18 88 1015 10 N 3.7
Ieri h: 07:00 sereno Sereno 20 18 88 1015 10 O/SO 7.4
Ieri h: 06:30 coperto Coperto 20 18 88 1015 10 N 3.7
Ieri h: 06:00 coperto Coperto 20 18 88 1015 10 N 3.7